Location: ???? ?????????
(31.1304°N, 31.7111°E)
Time: 18:45:28
(UTC+00:00)

Explorer 7 - Visible Passes

Search period start: 04 March 2021 00:00
Search period end: 14 March 2021 00:00
Orbit: 484 x 677 km, 50.3° (Epoch: 03 March)

Date Brightness Start Highest point End Pass type
(mag) Time Alt. Az. Time Alt. Az. Time Alt. Az.
04 Mar 8.9 16:36:58 10° N 16:38:56 13° NNE 16:40:43 10° NE visible
04 Mar 9.3 18:16:01 10° NW 18:17:02 17° NW 18:17:02 17° NW visible
05 Mar 8.4 16:40:46 10° NNW 16:43:44 19° NNE 16:45:29 15° ENE visible
05 Mar 9.4 18:20:37 10° WNW 18:21:48 18° WNW 18:21:48 18° WNW visible
06 Mar 7.7 16:44:51 10° NNW 16:48:28 30° NE 16:50:21 20° E visible
06 Mar 9.5 18:25:32 10° WNW 18:26:41 16° W 18:26:41 16° W visible
07 Mar 6.9 16:49:07 10° NW 16:53:06 52° NE 16:55:22 22° ESE visible
07 Mar 9.8 18:31:06 10° W 18:31:43 12° WSW 18:31:43 12° WSW visible
08 Mar 6.7 16:53:34 10° NW 16:57:38 84° SW 17:00:32 17° SE visible
09 Mar 7.8 16:58:13 10° WNW 17:02:05 43° SW 17:05:44 10° SSE visible
10 Mar 9.0 17:03:14 10° WNW 17:06:26 23° SW 17:09:31 10° S visible
11 Mar 9.7 17:09:07 10° W 17:10:42 12° SW 17:12:17 10° SSW visible
